TMSAT-1 - Orbit

View from above orbital plane
View from above orbital plane
View from above satellite
View from above satellite

Ground track
Ground track

The orbit data is extracted from the following two-line orbital elements,

1 25396U 98043C   13144.49321524  .00000180  00000-0  96160-4 0  5757
2 25396 098.3832 117.9995 0002263 011.0124 098.7807 14.24016942772832
Epoch (UTC): 24 May 2013 11:50:13
Eccentricity: 0.0002263
inclination: 98.3832°
perigee height: 810 km
apogee height: 813 km
right ascension of ascending node: 117.9995°
argument of perigee: 11.0124°
revolutions per day: 14.24016942
mean anomaly at epoch: 98.7807°
orbit number at epoch: 77283

The dashed part of the orbit path shows where the satellite is in the earth's shadow,  

Developed and maintained by Chris Peat, Heavens-Above GmbH. Please read the updated FAQ before sending e-mail. Imprint. DLR